DMSP 5D-2 F13 DEB, 40441

Orbit data source: Space-Track

DMSP 5D-2 F13 DEB, 40441 is space debris in SSO originally from a launch on Fri, 24 Mar 1995 UTC launched from the Air Force Western Test Range (AFWTR). Debris objects in space refer to the collection of defunct objects orbiting the Earth. Examples of debris include non-operational satellites, rocket bodies, and fragments generated from explosions, collisions, or faulty payload assembly.

Loading next visibility...
Identifier
40441, 1995-015AT
Orbit
SSO
Country
Flag of USUS
Related business
Manufacturer
Unknown
Mission
Spacecraft
Bus & Motor
Unknown
Mass
Unknown
Launch date (UTC)
1995-03-24 (31 years ago)
Launch vehicle
Unknown
Launch site
Air Force Western Test Range (AFWTR)
Object type
Payload
Rocket body
Debris
Shape & HBR
Unknown shape, 0.1 m
Radar Cross Section
Medium (>0.1 m² and <1 m²)

Expand to show TLE details & history
Last TLE update: 2 days ago

TLE from 2 days ago
0 DMSP 5D-2 F13 DEB
1 40441U 95015AT  26171.01935742  .00001301  00000-0  57849-3 0  9992
2 40441  98.8118 196.0135 0019830 225.7081 134.2472 14.24580294584033
Epoch: 2026-06-20T00:27Z
TLE epoch observation values (Epoch: 2026-06-20T00:27:52.481Z)
Latitude
0.00002°
Longitude
-79.19517°
Altitude
822.784 km
Speed
7.437 km/s
True Right ascension
13h 04m 03s
True Declination
0° 00' 00"
Sunlit
Object was in daylight at epoch
Visualization orbit readout
Latitude
Unknown
Longitude
Unknown
Altitude
Unknown
Speed
Unknown
Apparent Right ascension
Unknown
Apparent Declination
Unknown
Sunlit
N/A
Visualization observer readout
Local Sidereal Time
15:05:35
Azimuth
Unknown
Elevation
Unknown
Doppler factor
Unknown
Orbital elements
Apogee altitude
821.31 km
Perigee altitude
792.813 km
Semi-major axis
7,185.199 km
Eccentricity
0.00198
Inclination
98.8118°
RAAN
196.0135°
Arg. of periapsis
225.7081°
True anomaly
134.4097°
Mean anomaly
134.2472°
Eccentric anomaly
134.32848°
Mean motion
3.56357 °/min
Orbital period
101.02 mins
BSTAR
0.00057849
Loading maneuver chart data...
Computing Atmospheric mass density...

Documentation

Showing up to 5 results
|